CZ-6A DEB, 56272

Orbit data source: Space-Track

CZ-6A DEB, 56272 is space debris in SSO originally from a launch on Fri, 11 Nov 2022 UTC launched from the Taiyaun Space Center, China (TSC). Debris objects in space refer to the collection of defunct objects orbiting the Earth. Examples of debris include non-operational satellites, rocket bodies, and fragments generated from explosions, collisions, or faulty payload assembly.

Loading next visibility...
Identifier
56272, 2022-151ACQ
Orbit
SSO
Country
Flag of CNCN / PRC
Related business
Manufacturer
SAST
Mission
Spacecraft
Bus & Motor
Unknown
Mass
Unknown
Launch date (UTC)
2022-11-11 (4 years ago)
Launch vehicle
Unknown
Launch site
Taiyaun Space Center, China (TSC)
Object type
Payload
Rocket body
Debris
Shape & HBR
Unknown shape, 0.1 m
Radar Cross Section
Medium (>0.1 m² and <1 m²)

Expand to show TLE details & history
Last TLE update: 1 day ago

TLE from 1 day ago
0 CZ-6A DEB
1 56272U 22151ACQ 26235.35396815  .00003626  00000-0  12797-2 0  9996
2 56272  98.7581 262.1391 0013412  48.6337 311.5999 14.35305356177027
Epoch: 2026-08-23T08:29Z
TLE epoch observation values (Epoch: 2026-08-23T08:29:42.848Z)
Latitude
-0°
Longitude
163.05934°
Altitude
770.623 km
Speed
7.472 km/s
True Right ascension
17h 28m 33s
True Declination
0° 00' 00"
Sunlit
Object was in daylight at epoch
Visualization orbit readout
Latitude
Unknown
Longitude
Unknown
Altitude
Unknown
Speed
Unknown
Apparent Right ascension
Unknown
Apparent Declination
Unknown
Sunlit
N/A
Visualization observer readout
Local Sidereal Time
03:50:12
Azimuth
Unknown
Elevation
Unknown
Doppler factor
Unknown
Orbital elements
Apogee altitude
780.781 km
Perigee altitude
761.604 km
Semi-major axis
7,149.329 km
Eccentricity
0.00134
Inclination
98.7581°
RAAN
262.1391°
Arg. of periapsis
48.6337°
True anomaly
311.48484°
Mean anomaly
311.5999°
Eccentric anomaly
311.54238°
Mean motion
3.59042 °/min
Orbital period
100.27 mins
BSTAR
0.0012797
Loading maneuver chart data...
Computing Atmospheric mass density...
Loading historical data...
Loading historical data...
Loading historical data...
Loading historical data...
Loading historical data...
Loading historical data...
Loading historical data...

Documentation

Showing up to 5 results
|